Dewpoint
51 50 48 47 47 46 47 48 48 49 49 50 52 53 56 62 64 65 64 64 63 61
49 46 45 44 44 44 43 44 43 46 47 46 46 49 52 51 50 52 52 56 58 57
47 46 44 43 42 41 41 41 41 40 42 44 44 43 44 46 45 44 47 48 49 49
44 42 42 40 39 39 39 39 39 38 38 39 41 42 41 41 41 40 39 41 41 41
42 40 39 37 37 36 35 36 36 37 37 37 38 38 38 39 38 36 36 36 36 35
39 38 36 35 35 34 33 33 33 34 34 34 35 38 38 38 37 36 36 35 33 32
37 36 35 35 34 32 33 31 31 31 32 33 34 34 35 36 36 37 35 33 32 31
37 36 35 34 32 31 30 30 31 30 31 32 33 34 34 34 34 34 33 32 30 30
34 34 33 32 33 32 29 28 28 28 29 29 31 32 35 34 34 32 30 29 29 28
34 33 32 32 30 28 29 29 27 26 27 27 27 29 28 30 30 28 26 24 23 23
32 31 31 30 30 30 28 27 26 25 25 26 27 28 26 26 25 26 25 25 23 23
31 31 31 30 29 29 29 28 26 25 23 22 23 26 25 23 23 22 23 23 24 24
29 29 28 28 28 28 28 25 23 20 20 21 20 24 25 22 21 22 21 23 24 26
27 27 27 26 26 25 23 22 22 21 20 18 19 20 24 24 20 21 21 22 23 26
Lifted_Index
5 5 4 4 4 4 3 3 3 2 1 1 -0 -1 -2 -3 -4 -4 -3 -3 -3 -4
6 5 4 4 4 4 4 4 4 3 2 2 1 1 1 -0 -2 -1 -0 -1 -2 -2
6 6 6 5 5 6 6 5 5 5 4 4 3 4 5 4 3 3 4 3 2 2
6 6 7 7 7 8 8 7 7 7 7 6 6 6 7 7 7 6 7 7 6 6
5 6 8 9 10 10 10 10 10 9 9 9 9 9 9 10 10 10 10 11 10 9
5 6 8 10 11 11 11 11 11 11 11 11 12 12 12 12 12 13 13 14 14 14
7 7 9 10 11 11 12 12 12 12 12 13 13 14 14 14 14 14 15 16 16 17
8 9 10 11 11 12 12 13 13 13 14 14 15 16 17 17 16 15 15 16 17 18
9 9 10 11 12 13 13 15 15 16 16 16 18 19 20 19 18 17 17 17 19 20
10 10 11 12 13 14 15 17 18 19 19 19 20 21 21 21 21 20 20 20 21 22
11 11 13 13 15 16 18 19 20 21 21 22 22 23 23 22 22 23 23 23 23 23
12 13 14 15 16 18 19 20 21 22 22 23 23 23 23 23 23 24 24 24 24 24
14 14 16 17 18 19 20 21 21 22 22 23 23 24 24 24 24 24 24 24 24 24
15 15 17 18 18 19 20 21 21 22 22 23 23 24 24 24 24 24 24 24 24 24